Location: Newark
(37.9128°N, 122.4756°W)
Time: 02:34:14
(UTC+00:00)

ISS - Pass Details

Date: 22 November 2019
Orbit: 411 x 421 km, 51.6° (Epoch: 11 December)

Event Time Altitude Azimuth Distance (km) Brightness Sun altitude
Rises 01:52:05 0° 212° (SSW) 2,338 0.8 -11.4°
Reaches altitude 10° 01:54:15 10° 203° (SSW) 1,482 -0.4 -11.8°
Maximum altitude 01:57:21 37° 134° (SE) 664 -3.0 -12.4°
Enters shadow 01:58:57 22° 82° (E) 954 -2.6 -12.7°
